| time (UTC) | temp F | wind direction | speed MPH | gust MPH | rain 1hr in | rain 24hr in | rain mn in | humidity % | barometer mb |
| 20260906122407 | 72 | 277 | 2.0 | 4.0 | 0.00 | 0.00 | 0.00 | 57 | 1026.0 |
| 20260906121406 | 72 | 213 | 4.0 | 7.0 | 0.00 | 0.00 | 0.00 | 57 | 1026.1 |
| 20260906120407 | 72 | 202 | 4.0 | 9.0 | 0.00 | 0.00 | 0.00 | 58 | 1026.2 |
| 20260906115406 | 71 | 157 | 3.0 | 6.0 | 0.00 | 0.00 | 0.00 | 61 | 1026.4 |
| 20260906113402 | 70 | 272 | 6.0 | 11.0 | 0.00 | 0.00 | 0.00 | 60 | 1026.7 |
| 20260906112401 | 69 | 257 | 3.0 | 7.0 | 0.00 | 0.00 | 0.00 | 63 | 1026.8 |
| 20260906111401 | 68 | 244 | 4.0 | 9.0 | 0.00 | 0.00 | 0.00 | 63 | 1027.0 |
| 20260906110401 | 68 | 205 | 3.0 | 9.0 | 0.00 | 0.00 | 0.00 | 64 | 1027.0 |
| 20260906105407 | 67 | 138 | 2.0 | 7.0 | 0.00 | 0.00 | 0.00 | 65 | 1027.0 |
| 20260906104406 | 67 | 256 | 3.0 | 8.0 | 0.00 | 0.00 | 0.00 | 65 | 1027.0 |
| 20260906103406 | 67 | 180 | 5.0 | 8.0 | 0.00 | 0.00 | 0.00 | 66 | 1027.0 |
| 20260906102406 | 66 | 299 | 2.0 | 4.0 | 0.00 | 0.00 | 0.00 | 68 | 1027.1 |
| 20260906100406 | 66 | 163 | 4.0 | 8.0 | 0.00 | 0.00 | 0.00 | 68 | 1027.3 |
| 20260906095407 | 66 | 188 | 2.0 | 6.0 | 0.00 | 0.00 | 0.00 | 69 | 1027.4 |
| 20260906094406 | 65 | 235 | 3.0 | 7.0 | 0.00 | 0.00 | 0.00 | 72 | 1027.4 |
| 20260906093406 | 64 | 201 | 4.0 | 9.0 | 0.00 | 0.00 | 0.00 | 72 | 1027.5 |
| 20260906091406 | 63 | 209 | 3.0 | 9.0 | 0.00 | 0.00 | 0.00 | 75 | 1027.5 |
| 20260906090406 | 62 | 275 | 2.0 | 4.0 | 0.00 | 0.00 | 0.00 | 76 | 1027.6 |
| 20260906085406 | 62 | 265 | 2.0 | 3.0 | 0.00 | 0.00 | 0.00 | 79 | 1027.6 |
| 20260906084406 | 61 | 232 | 2.0 | 7.0 | 0.00 | 0.00 | 0.00 | 81 | 1027.6 |
| 20260906083406 | 61 | 176 | 1.0 | 5.0 | 0.00 | 0.00 | 0.00 | 82 | 1027.6 |
| 20260906082407 | 60 | 234 | 2.0 | 5.0 | 0.00 | 0.00 | 0.00 | 83 | 1027.5 |